Weather Roundup
Issued by NWS Springfield, MO

Home | Current Version | Previous Version | Text Only | Print | Product List | Glossary On
Versions: 1 2 3 4 5 6 7 8 9 10 11 12 13 14 15 16 17 18 19 20 21 22 23 24 25 26 27 28 29 30 31 32 33 34 35 36 37 38 39 40 41 42 43 44 45 46 47 48 49 50
000
NZUS99 KSGF 252207
HRRSGF

HOURLY WEATHER
NATIONAL WEATHER SERVICE SPRINGFIELD MO
500 PM CDT THU AUG 25 2016

......SGF CWA......

CITY           SKY/WX    TMP DP  RH WIND       PRES   REMARKS
SPRINGFIELD    SUNNY     90  68  48 S15       30.02F HX  94
JOPLIN         PTSUNNY   77  71  82 E6        30.00F
WEST PLAINS    MOSUNNY   88  69  53 S6        30.09F HX  92
ROLLA          SUNNY     89  73  59 S5        30.03F HX  97
OSAGE BEACH    TSTM      77  68  73 SE6G21    30.06R
BRANSON        PTSUNNY   90  72  55 SE6       30.07F HX  96

......SURROUNDING SGF CWA......

CITY           SKY/WX    TMP DP  RH WIND       PRES   REMARKS
CHANUTE        MOSUNNY   90  72  55 NW6       30.00F HX  97
PARSONS        MOSUNNY   92  69  47 N9        30.00F HX  97
COFFEYVILLE    MOSUNNY   93  69  45 N10       29.97F HX  98
EMPORIA        MOSUNNY   84  69  60 NW6       30.04F
GROVE OK       MOSUNNY   91  68  46 SE3       30.00S HX  95
ROGERS AR      PTSUNNY   90  69  50 SE9       30.05F HX  94
SILOAM SPRINGS MOSUNNY   93  63  36 MISG        N/A  HX  94
HARRISON AR    CLOUDY    85  70  60 SE7       30.07F
NEAR YELLVILLE CLOUDY    88  72  58 CALM      30.03F HX  94

......KANSAS AND MISSOURI......

CITY           SKY/WX    TMP DP  RH WIND       PRES   REMARKS
KANSAS CTY INT PTSUNNY   79  68  69 N12       30.05S
DOWNTOWN KC    CLOUDY    84  68  58 NW5       30.02S
COLUMBIA       MOSUNNY   85  73  67 CALM      30.01F HX  91
SEDALIA        CLOUDY    86  73  65 W3        30.02F HX  93
ST JOSEPH      PTSUNNY   77  66  68 NE13      30.06F
ST LOUIS       MOSUNNY   94  71  47 W9        30.02F HX 101
SPIRIT OF STL  PTSUNNY   91  73  55 SW6       30.00F HX  99
KIRKSVILLE     CLOUDY    76  68  76 N9        30.07F
WICHITA        MOSUNNY   85  68  56 NE8       30.04F
TOPEKA           N/A     80  70  71 N12       30.05F
OLATHE         PTSUNNY   81  71  71 S3        30.03F

......TENNESSEE......

CITY           SKY/WX    TMP DP  RH WIND       PRES   REMARKS
MEMPHIS        TSTM      77  68  73 W13G31    30.06R
NASHVILLE      CLOUDY    83  74  74 SE6       30.09F

......ARKANSAS.......

CITY           SKY/WX    TMP DP  RH WIND       PRES   REMARKS
FAYETTEVILLE   CLOUDY    89  70  53 S8        30.04F HX  94
FT SMITH       CLOUDY    94  67  41 VRB5      30.00S HX  97
LITTLE ROCK    CLOUDY    83  76  79 SW7       30.05F HX  91

......OKLAHOMA.......

CITY           SKY/WX    TMP DP  RH WIND       PRES   REMARKS
TULSA          PTSUNNY   95  69  42 MISG      29.94F HX 100
PONCA CITY     CLOUDY    90  68  48 N6        29.99F HX  94
MCALESTER      SUNNY     95  66  38 S6        29.99F HX  98
OKLAHOMA CITY  MOSUNNY   92  66  42 SE8       29.98F HX  94

......IOWA............

CITY           SKY/WX    TMP DP  RH WIND       PRES   REMARKS
DES MOINES     CLOUDY    76  62  62 NW3       30.10R
QUAD CITIES    CLOUDY    78  65  63 W7        30.06S

......ILLINOIS........

CITY           SKY/WX    TMP DP  RH WIND       PRES   REMARKS
QUINCY         CLOUDY    82  72  71 CALM      30.03S
CHICAGO        CLOUDY    80  66  62 NW10      30.02S



USA.gov is the U.S. government's official web portal to all federal, state and local government web resources and services.